Location: Recife
(8.0585°S, 34.8848°W)
Time: 11:59:15
(UTC-03:00)

S-56A Canister/Altair - Visible Passes

Search period start: 14 April 2026 00:00
Search period end: 24 April 2026 00:00
Orbit: 632 x 2485 km, 38.9° (Epoch: 14 April)

Date Brightness Start Highest point End Pass type
(mag) Time Alt. Az. Time Alt. Az. Time Alt. Az.
14 Apr 11.3 01:12:03 10° NE 01:12:03 10° NE 01:12:09 10° NE visible
14 Apr 10.4 03:09:20 21° NNW 03:09:20 21° NNW 03:16:02 10° NNE visible
15 Apr 10.6 02:36:25 20° N 02:36:25 20° N 02:40:43 10° NNE visible
16 Apr 10.9 02:03:28 15° NNE 02:03:28 15° NNE 02:05:22 10° NNE visible
